User: anonymous   Login
Location: Caltech
(34.1382°N, 118.1253°W)
Time: 05:08:16
(UTC-08:00)
Language:

SO-67 - Orbit

View from above orbital plane
View from above orbital plane
View from above satellite
View from above satellite

Ground track
Ground track

The orbit data is extracted from the following two-line orbital elements,

1 35870U 09049F   15031.13144598  .00012000  00000-0  32170-3 0  9326
2 35870 097.1465 050.6932 0002701 043.0480 357.5292 15.38121686299027
Epoch (UTC): 31 January 2015 03:09:16
Eccentricity: 0.0002701
inclination: 97.1465°
perigee height: 450 km
apogee height: 453 km
right ascension of ascending node: 50.6932°
argument of perigee: 43.0480°
revolutions per day: 15.38121686
mean anomaly at epoch: 357.5292°
orbit number at epoch: 29902

The dashed part of the orbit path shows where the satellite is in the earth's shadow,  

DLR